This is the latest recevied weather packets stored in our database for station/object EB1BWO-11. If no packets are shown the sender has not sent any weather packets the latest 10 day(s).
| Time | Temp. | Humidity | Pressure | Rain* | Wind** | Luminosity | Snow |
|---|---|---|---|---|---|---|---|
| 1788030649 | 24.44° C | 55% | 1020.9 hPa | - | - | - | - |
| 1788029975 | 24.44° C | 54% | 1020.8 hPa | - | - | - | - |
| 1788029075 | 25° C | 53% | 1020.7 hPa | - | - | - | - |
| 1788028175 | 25.56° C | 53% | 1020.7 hPa | - | - | - | - |
| 1788027274 | 25.56° C | 52% | 1020.6 hPa | - | - | - | - |
| 1788026372 | 25.56° C | 52% | 1020.7 hPa | - | - | - | - |
| 1788025471 | 25° C | 53% | 1020.7 hPa | - | - | - | - |
| 1788024571 | 25.56° C | 52% | 1020.7 hPa | - | - | - | - |
| 1788023670 | 26.11° C | 52% | 1020.6 hPa | - | - | - | - |
| 1788022769 | 26.67° C | 52% | 1020.6 hPa | - | - | - | - |
| 1788021868 | 26.67° C | 52% | 1020.5 hPa | - | - | - | - |
| 1788020968 | 27.78° C | 49% | 1020.5 hPa | - | - | - | - |
| 1788020067 | 28.33° C | 48% | 1020.2 hPa | - | - | - | - |
| 1788019166 | 28.33° C | 50% | 1020 hPa | - | - | - | - |
| 1788018265 | 30° C | 48% | 1019.8 hPa | - | - | - | - |
| 1788017365 | 31.11° C | 48% | 1019.6 hPa | - | - | - | - |
| 1788016463 | 32.22° C | 45% | 1019.4 hPa | - | - | - | - |
| 1788015563 | 33.89° C | 43% | 1019.3 hPa | - | - | - | - |
| 1788014663 | 36.67° C | 40% | 1019.1 hPa | - | - | - | - |
| 1788013761 | 46.11° C | 32% | 1019 hPa | - | - | - | - |
| 1788012861 | 51.11° C | 28% | 1019 hPa | - | - | - | - |
| 1788011960 | 51.11° C | 28% | 1019.2 hPa | - | - | - | - |
| 1788011060 | 51.11° C | 28% | 1019.4 hPa | - | - | - | - |
| 1788010160 | 51.67° C | 27% | 1019.4 hPa | - | - | - | - |
| 1788009259 | 52.78° C | 23% | 1019.6 hPa | - | - | - | - |
* Rain since midnight (hover to see other rain measurements)
** Current wind speed in m/s (hover to see current wind gust speed)